Back to catalog

CHUTIAN XINGZUO 2-02 XING

AliveCommunicationsSSO
NORAD 66410·PAYLOAD·🇨🇳 China
This satellite name has not been confirmed by official sources yet.

Launched Nov 9, 2025 from Jiuquan Satellite Launch Center

Loading…

Next Passes (next 24 hours)

TLE

FreshSource: Space-Track

Epoch: Sep 13, 2026, 17:47 UTC

1 66410U 25256B   26256.74130729  .00000325  00000-0  94530-4 0  9996
2 66410  98.2458 321.2336 0014984  66.9617 293.3156 14.50265738 44734

Track CHUTIAN XINGZUO 2-02 XING in real time with AllMySat

Download on the App Store